Tracking 30510 objects as of 22-May-2025
HD Live streaming from Space Station
objects crossing your sky now

ELEKTRO-L 4

Track ELEKTRO-L 4 now!


NORAD ID: 55506
Int'l Code: 2023-016A
Perigee: 35,792.5 km
Apogee: 35,796.3 km
Inclination: 0.0 °
Period: 1,436.1 minutes
Semi major axis: 42165 km
RCS: Unknown
Launch date: February 5, 2023
Source: Commonwealth of Independent States (former USSR) (CIS)
Launch site: TYURATAM MISSILE AND SPACE COMPLEX (TTMTR)
Your satellite tracking list
Your tracking list is empty




NASA's NSSDC Master Catalog

Two Line Element Set (TLE):
1 55506U 23016A   25140.87637648 -.00000050  00000-0  00000-0 0  9990
2 55506   0.0065 334.8023 0000451 196.4772 188.7213  1.00269312  8409
Source of the keplerian elements: AFSPC